{"data":{"norad_id":68404,"intl_designator":"2026-063AA","name":"STARLINK-37188","alt_names":[],"object_type":"PAYLOAD","status":"ACTIVE","operator":null,"country":"US","launch_date":"2026-03-26","launch_site_code":"AFWTR","launch_vehicle":null,"mission":null,"orbit_class":"UNKNOWN","rcs_meters":null,"size_class":null,"mass_kg":null,"dimensions":null,"purposes":["comms"],"wikipedia_slug":null,"has_3d_model":false,"image_url":null,"decayed_at":null,"tle_current":{"epoch":"2026-09-19T07:51:55.894464Z","epoch_age_seconds":149287,"freshness":"FRESH","line1":"1 68404U 26063AA  26262.32773026  .00021844  00000+0  67749-3 0  9991","line2":"2 68404  97.2859  43.2803 0001100  82.9066 277.2302 15.33420742 27572","mean_motion":15.33420742,"eccentricity":0.00011,"inclination_deg":97.2859,"raan_deg":43.2803,"arg_perigee_deg":82.9066,"mean_anomaly_deg":277.2302,"bstar":0.00067749,"rev_number":2757,"period_min":93.907690209136,"perigee_km":464.86253741213,"apogee_km":466.36816292917,"semimajor_km":6843.7523501707,"source":"CELESTRAK","updated_at":"2026-09-20T09:00:43.899839Z"}}}